Date String (YYYY-MM-DD hh:mm:ss) UTC,Instrument flags,Ambient pressure (hPa),Sample flow (lpm),Bypass flow (lpm),Sample temperature (°C),Ambient temperature (°C),ASC tube jacket temperature (°C),LED temperature (°C),Box temperature (°C),Sample RH (%),Span deviation,Mass concentration (μg/m³),Mass concentration (μg/m³),Mass concentration (μg/m³)
DateTimeUTC,F1_M11,P_M11,Q1_M11,Q2_M11,T1_M11,T2_M11,T3_M11,T4_M11,T5_M11,U1_M11,ZSPAN_M11,X2_M11,X0_M11,X1_M11
2021-11-27 19:00:00,,0831.2,4.99,0.00,24.8,24.2,00.0,33.7,26.6,11.1,0000.0,0001.61,0004.17,0001.03
2021-11-27 19:01:00,,0831.2,5.01,0.00,24.8,24.3,00.0,33.7,26.6,11.1,0000.0,0001.63,0003.28,0001.03
2021-11-27 19:02:00,,0831.1,4.99,0.00,24.8,24.3,00.0,33.7,26.7,11.1,0000.0,0001.58,0003.17,0001.03
2021-11-27 19:03:00,,0831.1,5.00,0.00,24.9,24.3,00.0,33.8,26.7,11.0,0000.0,0001.57,0003.31,0001.02
2021-11-27 19:04:00,,0831.1,5.00,0.00,24.9,24.3,00.0,33.8,26.7,11.0,0000.0,0001.56,0003.21,0001.02
2021-11-27 19:05:00,,0831.0,5.00,0.00,24.9,24.3,00.0,33.8,26.7,11.0,0000.0,0001.53,0003.13,0001.02
2021-11-27 19:06:00,,0831.0,4.99,0.00,24.9,24.3,00.0,33.8,26.7,11.0,0000.0,0001.52,0003.20,0001.01
2021-11-27 19:07:00,,0831.0,5.01,0.00,24.9,24.2,00.0,33.8,26.7,11.1,0000.0,0001.50,0003.02,0001.01
2021-11-27 19:08:00,,0831.0,4.99,0.00,24.9,24.2,00.0,33.8,26.7,11.1,0000.0,0001.47,0002.91,0001.01
2021-11-27 19:09:00,,0831.0,5.01,0.00,24.9,24.3,00.0,33.8,26.6,11.1,0000.0,0001.47,0003.20,0001.01
2021-11-27 19:10:00,,0831.0,5.00,0.00,24.9,24.3,00.0,33.8,26.6,11.1,0000.0,0001.47,0003.17,0001.02
2021-11-27 19:11:00,,0831.0,4.99,0.00,24.9,24.3,00.0,33.8,26.7,11.1,0000.0,0001.50,0003.20,0001.03
2021-11-27 19:12:00,,0831.0,5.01,0.00,24.9,24.3,00.0,33.8,26.7,11.1,0000.0,0001.50,0003.24,0001.03
2021-11-27 19:13:00,,0831.0,4.99,0.00,24.9,24.3,00.0,33.8,26.7,11.1,0000.0,0001.53,0003.21,0001.03
2021-11-27 19:14:00,,0831.0,4.99,0.00,24.9,24.3,00.0,33.8,26.7,11.1,0000.0,0001.55,0003.37,0001.04
2021-11-27 19:15:00,,0831.0,5.02,0.00,24.9,24.4,00.0,33.8,26.7,11.1,0000.0,0001.57,0003.65,0001.04
2021-11-27 19:16:00,,0831.0,5.00,0.00,24.9,24.4,00.0,33.9,26.7,11.1,0000.0,0001.63,0003.74,0001.05
2021-11-27 19:17:00,,0831.0,5.00,0.00,25.0,24.4,00.0,33.9,26.7,11.2,0000.0,0001.68,0003.70,0001.06
2021-11-27 19:18:00,,0831.0,5.00,0.00,25.0,24.5,00.0,33.9,26.8,11.1,0000.0,0001.68,0003.67,0001.07
2021-11-27 19:19:00,,0831.0,5.01,0.00,25.0,24.5,00.0,33.9,26.8,11.1,0000.0,0001.75,0003.94,0001.10
2021-11-27 19:20:00,,0831.0,4.99,0.00,25.0,24.5,00.0,33.9,26.8,11.1,0000.0,0001.80,0004.62,0001.11
2021-11-27 19:21:00,,0830.9,5.00,0.00,25.0,24.5,00.0,33.9,26.8,11.0,0000.0,0001.82,0005.37,0001.12
2021-11-27 19:22:00,,0830.9,5.01,0.00,25.0,24.5,00.0,33.9,26.9,11.1,0000.0,0001.80,0005.95,0001.12
2021-11-27 19:23:00,,0830.9,5.00,0.00,25.0,24.5,00.0,33.9,26.9,11.1,0000.0,0001.75,0005.79,0001.11
2021-11-27 19:24:00,,0830.9,5.00,0.00,25.0,24.5,00.0,34.0,26.9,11.1,0000.0,0001.75,0005.93,0001.11
2021-11-27 19:25:00,,0830.9,5.01,0.00,25.1,24.5,00.0,34.0,26.9,11.1,0000.0,0001.78,0006.50,0001.12
2021-11-27 19:26:00,,0830.9,5.00,0.00,25.1,24.5,00.0,34.0,26.9,11.0,0000.0,0001.78,0006.55,0001.13
2021-11-27 19:27:00,,0830.9,5.01,0.00,25.1,24.5,00.0,34.0,26.9,11.0,0000.0,0001.77,0006.57,0001.14
2021-11-27 19:28:00,,0831.0,4.99,0.00,25.1,24.5,00.0,34.0,26.9,11.1,0000.0,0001.74,0006.56,0001.14
2021-11-27 19:29:00,,0830.9,5.00,0.00,25.1,24.5,00.0,34.0,26.9,11.1,0000.0,0001.77,0006.58,0001.14
2021-11-27 19:30:00,,0830.9,4.99,0.00,25.1,24.5,00.0,34.0,27.0,11.1,0000.0,0001.75,0006.45,0001.13
2021-11-27 19:31:00,,0830.9,4.99,0.00,25.1,24.6,00.0,34.0,27.0,11.1,0000.0,0001.71,0005.98,0001.12
2021-11-27 19:32:00,,0830.9,5.00,0.00,25.1,24.6,00.0,34.0,27.0,11.2,0000.0,0001.67,0006.15,0001.11
2021-11-27 19:33:00,,0830.9,5.00,0.00,25.2,24.6,00.0,34.1,27.1,11.1,0000.0,0001.70,0005.92,0001.12
2021-11-27 19:34:00,,0830.9,4.99,0.00,25.2,24.6,00.0,34.1,27.1,11.1,0000.0,0001.78,0006.37,0001.14
2021-11-27 19:35:00,,0831.0,5.00,0.00,25.2,24.7,00.0,34.1,27.1,11.1,0000.0,0001.76,0006.73,0001.14
2021-11-27 19:36:00,,0830.9,5.00,0.00,25.2,24.7,00.0,34.1,27.1,11.2,0000.0,0001.74,0006.37,0001.15
2021-11-27 19:37:00,,0830.9,5.00,0.00,25.3,24.8,00.0,34.1,27.1,11.1,0000.0,0001.75,0007.00,0001.15
2021-11-27 19:38:00,,0830.9,5.01,0.00,25.3,24.8,00.0,34.1,27.1,11.0,0000.0,0001.75,0007.06,0001.17
2021-11-27 19:39:00,,0830.9,4.99,0.00,25.3,24.8,00.0,34.2,27.2,11.0,0000.0,0001.70,0007.60,0001.15
2021-11-27 19:40:00,,0831.0,5.01,0.00,25.3,24.8,00.0,34.2,27.2,11.1,0000.0,0001.68,0007.57,0001.14
2021-11-27 19:41:00,,0830.9,4.98,0.00,25.3,24.8,00.0,34.2,27.1,11.2,0000.0,0001.65,0007.50,0001.13
2021-11-27 19:42:00,,0830.9,5.01,0.00,25.3,24.9,00.0,34.2,27.2,11.2,0000.0,0001.67,0007.48,0001.12
2021-11-27 19:43:00,,0830.9,5.00,0.00,25.4,24.9,00.0,34.2,27.2,11.3,0000.0,0001.74,0006.76,0001.11
2021-11-27 19:44:00,,0830.9,5.00,0.00,25.4,24.9,00.0,34.2,27.2,11.2,0000.0,0001.75,0006.54,0001.10
2021-11-27 19:45:00,,0830.9,5.01,0.00,25.4,24.9,00.0,34.3,27.2,11.2,0000.0,0001.68,0005.97,0001.08
2021-11-27 19:46:00,,0830.9,4.98,0.00,25.4,24.9,00.0,34.3,27.2,11.2,0000.0,0001.70,0005.83,0001.07
2021-11-27 19:47:00,,0830.8,5.01,0.00,25.4,24.8,00.0,34.3,27.2,11.1,0000.0,0001.68,0005.30,0001.07
2021-11-27 19:48:00,,0830.8,5.00,0.00,25.4,24.8,00.0,34.3,27.2,11.1,0000.0,0001.63,0004.13,0001.06
2021-11-27 19:49:00,,0830.8,5.00,0.00,25.4,24.9,00.0,34.3,27.2,11.2,0000.0,0001.62,0004.07,0001.05
2021-11-27 19:50:00,,0830.7,5.00,0.00,25.4,24.9,00.0,34.3,27.2,11.1,0000.0,0001.65,0003.20,0001.05
2021-11-27 19:51:00,,0830.6,5.01,0.00,25.4,24.8,00.0,34.3,27.2,11.1,0000.0,0001.70,0003.31,0001.05
2021-11-27 19:52:00,,0830.6,5.00,0.00,25.4,24.9,00.0,34.3,27.2,11.1,0000.0,0001.73,0003.53,0001.06
2021-11-27 19:53:00,,0830.7,4.99,0.00,25.4,24.9,00.0,34.3,27.2,11.1,0000.0,0001.76,0003.71,0001.08
2021-11-27 19:54:00,,0830.8,5.01,0.00,25.4,24.9,00.0,34.3,27.2,11.0,0000.0,0001.75,0003.66,0001.11
2021-11-27 19:55:00,,0830.8,4.99,0.00,25.4,24.8,00.0,34.3,27.2,11.0,0000.0,0001.75,0003.56,0001.14
2021-11-27 19:56:00,,0830.8,5.01,0.00,25.4,24.8,00.0,34.4,27.2,11.0,0000.0,0001.84,0003.87,0001.16
2021-11-27 19:57:00,,0830.7,4.98,0.00,25.4,24.8,00.0,34.4,27.2,11.0,0000.0,0001.89,0004.22,0001.18
2021-11-27 19:58:00,,0830.6,5.00,0.00,25.4,24.8,00.0,34.4,27.2,11.1,0000.0,0001.94,0004.42,0001.19
2021-11-27 19:59:00,,0830.6,5.01,0.00,25.4,24.8,00.0,34.4,27.2,11.1,0000.0,0001.99,0004.61,0001.20
